Location: La Chapelle
(48.3135°N, 1.3085°W)
Time: 00:12:36
(UTC+00:00)

PSLV R/B - Pass Details

Date: 03 March 2021
Orbit: 567 x 598 km, 98.2° (Epoch: 20 April)

Event Time Altitude Azimuth Distance (km) Brightness Sun altitude
Rises 18:32:11 0° 18° (NNE) 2,810 7.2 -7.4°
Reaches altitude 10° 18:34:24 10° 24° (NNE) 1,901 6.3 -7.7°
Maximum altitude 18:38:25 50° 100° (E) 737 4.1 -8.4°
Drops below altitude 10° 18:42:21 10° 177° (S) 1,869 6.5 -9.1°
Sets 18:44:32 0° 182° (S) 2,759 7.4 -9.4°
